Back to catalog

EKRAN 17

AliveCommunicationsGEO
NORAD 18715·PAYLOAD·🇷🇺 Russia

Launched Dec 27, 1987 from Baikonur Cosmodrome

Loading…

TLE

FreshSource: Space-Track

Epoch: Sep 14, 2026, 14:26 UTC

1 18715U 87109A   26257.60170779 -.00000149  00000-0  00000-0 0  9991
2 18715  13.3846 334.4006 0044893 244.3006 125.6966  0.95883197121678

Track EKRAN 17 in real time with AllMySat

Download on the App Store